Hourly Data Report for October 04, 2017

All times are specified in Local Standard Time (LST). Add 1 hour to adjust for Daylight Saving Time where and when it is observed.

PORT HAWKESBURY
NOVA SCOTIA

45°39'24.000" N
61°22'05.000" W
114.90 m
8204495
71041
YPD

Download Data

Hourly Data (October 2017)
Hourly Data Report for October 4, 2017
Temp Definition
°C
Dew Point Temp Definition
°C
Rel Hum Definition
%
Wind Dir Definition
10's deg

Wind Spd Definition
km/h
Visibility Definition
km
Stn Press Definition
kPa
Hmdx Definition


Wind Chill Definition


Weather Definition


TIME
00:00 Legend Double Dagger 6.4 4.6 88 23 11 16.1 101.48     LegendNANA
01:00 Legend Double Dagger 7.6 5.1 84 24 11 16.1 101.44     LegendNANA
02:00 Legend Double Dagger 7.6 5.1 84 22 9 16.1 101.34     LegendNANA
03:00 Legend Double Dagger 7.6 4.6 81 24 13 16.1 101.25     LegendNANA
04:00 Legend Double Dagger 7.3 5.3 87 28 17 16.1 101.20     LegendNANA
05:00 Legend Double Dagger 7.7 5.3 85 27 17 16.1 101.11     LegendNANA
06:00 Legend Double Dagger 7.3 5.6 89 27 11 16.1 101.05     LegendNANA
07:00 Legend Double Dagger 8.9 6.7 86 25 11 16.1 100.98     LegendNANA
08:00 Legend Double Dagger 10.6 7.6 82 26 13 16.1 100.94     LegendNANA
09:00 Legend Double Dagger 13.1 8.5 73 27 15 16.1 100.87     LegendNANA
10:00 Legend Double Dagger 15.0 8.8 66 27 18 16.1 100.78     LegendNANA
11:00 Legend Double Dagger 17.3 9.8 61 26 21 16.1 100.70     LegendNANA
12:00 Legend Double Dagger 18.7 10.0 57 26 24 16.1 100.65     LegendNANA
13:00 Legend Double Dagger 19.5 10.6 56 24 24 16.1 100.52     LegendNANA
14:00 Legend Double Dagger 19.9 11.2 57 25 18 16.1 100.45     LegendNANA
15:00 Legend Double Dagger 20.2 10.9 55 27 24 16.1 100.38     LegendNANA
16:00 Legend Double Dagger 19.7 11.8 60 26 15 16.1 100.32     LegendNANA
17:00 Legend Double Dagger 18.5 11.7 64 25 15 16.1 100.28     LegendNANA
18:00 Legend Double Dagger 16.3 11.6 73 24 9 16.1 100.23     LegendNANA
19:00 Legend Double Dagger 15.3 11.5 78 24 9 16.1 100.18     LegendNANA
20:00 Legend Double Dagger 14.7 11.7 82 19 8 16.1 100.13     LegendNANA
21:00 Legend Double Dagger 14.3 12.0 86 17 5 16.1 100.06     LegendNANA
22:00 Legend Double Dagger 14.8 11.6 81   0 16.1 100.01     LegendNANA
23:00 Legend Double Dagger 14.1 11.1 82 25 8 16.1 99.97     LegendNANA

Notes on Data Quality.

Legend

  • E = Estimated
  • M = Missing
  • NA = Not Available
  • ‡ = Partner data that is not subject to review by the National Climate Archives
Date modified: